Location: Helstorf
(52.5868°N, 9.5862°E)
Time: 10:27:18
(UTC+00:00)

Meteor 1-25 Rocket - Pass Details

Date: 15 May 2026
Orbit: 834 x 892 km, 81.2° (Epoch: 5 June)

Event Time Altitude Azimuth Distance (km) Brightness Sun altitude
Rises 20:22:03 0° 347° (NNW) 3,455 8.6 -8.9°
Reaches altitude 10° 20:24:31 10° 348° (NNW) 2,505 7.7 -9.1°
Maximum altitude 20:30:13 82° 76° (ENE) 864 4.2 -9.7°
Enters shadow 20:35:43 10° 165° (SSE) 2,426 6.0 -10.2°
